sat.trackr.live / text

‹ back to catalog

STARLINK-31582

NORAD 59545 · 2024-074M

PAYLOAD ACTIVE UNKNOWN

§ Identity

Operator
Country
US
Launch date
2024-04-18
Launch site
AFETR
Launch vehicle
Mass (kg)
RCS (m²)

Purposes: comms

External: N2YO · Heavens-Above · Gunter

§ Orbital elements

Epoch: 2026-05-25T01:55:55.333056Z

Period
94.27 min
Inclination
43.0068°
Eccentricity
0.0004450
Mean motion
15.27601749 rev/d
Perigee alt
479.9 km
Apogee alt
486.0 km
Semi-major
6,861.1 km
B*
-2.0056e-4
RAAN
272.4253°
Arg perigee
274.3426°
Mean anomaly
85.6917°
Rev number
11,769

§ Raw data

STARLINK-315821 59545U 24074M   26145.08050154 -.00005783  00000+0 -20056-3 0  99962 59545  43.0068 272.4253 0004450 274.3426  85.6917 15.27601749117699

JSON: /api/v1/satellites/59545 · /tle

For live sub-satellite position, see the globe view (requires WebGL).

§ Visibility from observer

Set your observer location to see the next 7 days of passes ≥ 10°. The values pass through the URL so the page stays shareable.

No JS? Fill the form by hand. The geolocation button needs JavaScript.